Item Display Status Humidity-temperature Sensor

Elevation Above Sea Level: 3 m

 

Deployed Sensor

  • Serial Number: 61303688
  • NDBC Property Number: 38754
  • Start Date: 6/20/2019 (21:10:00 Z)
  • End Date: 6/29/2020 (12:30:30 Z)
Relative Humidity [%]     6 entries per hour
Showing data from 8/18/2019 (23:50:00 Z) to 8/17/2019 (00:00:01 Z)
Previous Next [ Day | 3-Days | 7-Days ]
First Last
Prev [ Day | 3-Days | 7-Days ] Next
First Last

Start Time:     :
End Time:     :     
Time (in GMT) :00 :50 :40 :30 :20 :10
Previous Next [ Day | 3-Days | 7-Days ]
First Last
Prev [ Day | 3-Days | 7-Days ] Next
First Last


123 => good data
MM => data is determined as missing
-- => data not received/configured
Back to Top Back to Top
8/19/2019 00:00 to 23:10 -- 96.17 94.58 94.23 93.68 94.15
8/18/2019 23:00 to 22:10 93.78 93.53 93.92 93.22 93.16 93.70
8/18/2019 22:00 to 21:10 92.37 92.91 92.97 93.57 95.18 95.58
8/18/2019 21:00 to 20:10 95.08 92.66 91.51 92.87 91.28 92.21
8/18/2019 20:00 to 19:10 91.53 91.77 90.70 89.94 88.47 89.52
8/18/2019 19:00 to 18:10 88.82 87.62 84.80 85.44 86.45 85.68
8/18/2019 18:00 to 17:10 85.85 85.15 85.27 84.63 84.47 84.61
8/18/2019 17:00 to 16:10 84.47 85.00 85.15 84.53 84.42 84.69
8/18/2019 16:00 to 15:10 84.38 84.40 84.09 83.82 83.25 82.15
8/18/2019 15:00 to 14:10 82.81 82.42 83.04 82.77 82.81 81.59
8/18/2019 14:00 to 13:10 81.66 81.20 82.05 81.33 81.93 81.66
8/18/2019 13:00 to 12:10 81.78 82.34 82.46 82.94 82.54 82.79
8/18/2019 12:00 to 11:10 83.18 83.33 83.19 82.85 82.79 83.29
8/18/2019 11:00 to 10:10 83.60 83.14 82.34 82.57 81.53 81.62
8/18/2019 10:00 to 9:10 82.34 81.53 81.18 80.48 81.22 81.31
8/18/2019 09:00 to 8:10 82.19 79.96 79.78 79.06 80.21 79.57
8/18/2019 08:00 to 7:10 79.45 79.70 80.11 81.16 78.77 80.75
8/18/2019 07:00 to 6:10 80.85 80.93 80.93 80.44 81.18 79.41
8/18/2019 06:00 to 5:10 81.37 80.42 79.14 80.32 81.27 80.40
8/18/2019 05:00 to 4:10 78.35 78.83 78.62 78.79 80.13 80.44
8/18/2019 04:00 to 3:10 80.56 79.34 79.94 78.17 78.50 79.47
8/18/2019 03:00 to 2:10 80.03 80.87 81.27 79.14 79.72 79.59
8/18/2019 02:00 to 1:10 80.13 80.91 81.57 80.83 81.26 79.34
8/18/2019 01:00 to 0:10 78.99 79.59 77.98 79.80 79.28 79.80
8/18/2019 00:00 to 23:10 80.48 82.05 83.04 82.42 81.86 82.07
8/17/2019 23:00 to 22:10 83.16 83.56 83.39 84.36 83.99 85.60
8/17/2019 22:00 to 21:10 84.20 85.93 85.72 85.39 84.11 83.72
8/17/2019 21:00 to 20:10 84.69 85.27 84.53 83.72 84.98 85.95
8/17/2019 20:00 to 19:10 85.09 84.78 85.70 85.66 86.65 85.95
8/17/2019 19:00 to 18:10 85.33 85.02 85.11 84.63 85.15 85.87
8/17/2019 18:00 to 17:10 85.41 86.16 86.39 85.50 83.70 83.74
8/17/2019 17:00 to 16:10 83.41 83.49 82.59 82.55 82.71 84.84
8/17/2019 16:00 to 15:10 85.35 85.11 83.19 82.28 82.07 81.64
8/17/2019 15:00 to 14:10 83.80 84.65 86.94 87.67 86.76 87.89
8/17/2019 14:00 to 13:10 88.57 88.72 87.60 87.36 87.63 88.84
8/17/2019 13:00 to 12:10 88.14 88.55 88.59 90.08 90.18 88.99
8/17/2019 12:00 to 11:10 89.26 89.57 88.80 89.90 88.41 90.19
8/17/2019 11:00 to 10:10 90.70 90.62 91.36 89.21 90.18 89.94
8/17/2019 10:00 to 9:10 89.36 89.17 89.94 89.85 88.47 90.54
8/17/2019 09:00 to 8:10 90.39 90.97 90.06 91.42 92.40 90.68
8/17/2019 08:00 to 7:10 93.80 92.52 92.73 92.58 94.07 93.96
8/17/2019 07:00 to 6:10 94.69 95.66 96.21 96.90 97.52 98.05
8/17/2019 06:00 to 5:10 97.35 98.30 98.80 97.31 98.76 99.35
8/17/2019 05:00 to 4:10 99.54 99.73 99.73 99.73 99.48 99.40
8/17/2019 04:00 to 3:10 99.19 99.66 99.58 99.68 99.52 98.80
8/17/2019 03:00 to 2:10 97.66 97.02 97.97 98.63 98.13 98.53
8/17/2019 02:00 to 1:10 98.44 98.94 96.96 98.16 96.69 98.92
8/17/2019 01:00 to 0:10 99.54 99.39 99.00 99.09 98.76 97.93

 

 

 

Air Temperature [°C]     6 entries per hour
Showing data from 2/23/2020 (09:50:00 Z) to 2/22/2020 (00:00:01 Z)
Previous Next [ Day | 3-Days | 7-Days ]
First Last
Prev [ Day | 3-Days | 7-Days ] Next
First Last

Start Time:     :
End Time:     :     
Time (in GMT) :00 :50 :40 :30 :20 :10
Previous Next [ Day | 3-Days | 7-Days ]
First Last
Prev [ Day | 3-Days | 7-Days ] Next
First Last


123 => good data
MM => data is determined as missing
-- => data not received/configured
Back to Top Back to Top
2/23/2020 10:00 to 9:10 -- 31.62 30.37 30.17 29.93 29.65
2/23/2020 09:00 to 8:10 29.30 29.11 28.94 28.67 28.54 28.41
2/23/2020 08:00 to 7:10 28.26 28.24 28.37 28.22 28.43 28.55
2/23/2020 07:00 to 6:10 28.73 28.75 28.87 28.86 29.03 29.66
2/23/2020 06:00 to 5:10 30.21 30.37 30.29 30.25 30.24 30.15
2/23/2020 05:00 to 4:10 30.27 30.15 30.02 29.90 29.66 29.42
2/23/2020 04:00 to 3:10 29.17 28.93 28.76 28.53 28.33 28.25
2/23/2020 03:00 to 2:10 28.27 28.08 28.03 27.95 27.90 27.71
2/23/2020 02:00 to 1:10 27.69 27.72 27.60 27.56 27.56 27.45
2/23/2020 01:00 to 0:10 27.48 27.54 27.39 27.39 27.43 27.32
2/23/2020 00:00 to 23:10 27.33 27.28 27.29 27.27 27.30 27.30
2/22/2020 23:00 to 22:10 27.15 27.16 27.09 27.12 27.18 27.12
2/22/2020 22:00 to 21:10 27.14 27.04 27.26 27.08 26.94 26.97
2/22/2020 21:00 to 20:10 26.93 27.00 27.04 27.08 27.21 26.96
2/22/2020 20:00 to 19:10 26.99 27.10 27.00 27.02 27.00 26.98
2/22/2020 19:00 to 18:10 26.99 26.92 26.89 26.97 26.93 26.89
2/22/2020 18:00 to 17:10 26.89 26.87 26.89 26.87 26.93 27.04
2/22/2020 17:00 to 16:10 27.01 27.11 27.07 27.11 27.17 27.14
2/22/2020 16:00 to 15:10 27.08 27.11 27.04 27.03 27.02 26.89
2/22/2020 15:00 to 14:10 27.05 27.02 27.11 27.10 27.00 27.00
2/22/2020 14:00 to 13:10 26.73 26.79 26.96 26.77 26.64 26.67
2/22/2020 13:00 to 12:10 26.42 26.34 26.23 26.25 26.26 26.18
2/22/2020 12:00 to 11:10 26.15 26.14 26.17 26.18 26.19 26.20
2/22/2020 11:00 to 10:10 26.20 26.20 26.20 26.11 26.16 26.14
2/22/2020 10:00 to 9:10 26.05 26.05 26.04 26.20 26.13 26.18
2/22/2020 09:00 to 8:10 26.25 26.16 26.21 26.12 26.30 26.27
2/22/2020 08:00 to 7:10 26.24 26.24 26.14 26.23 26.19 26.10
2/22/2020 07:00 to 6:10 26.05 26.06 26.08 26.04 25.91 25.70
2/22/2020 06:00 to 5:10 25.25 25.09 25.04 25.02 25.09 25.06
2/22/2020 05:00 to 4:10 24.91 24.86 25.00 24.90 24.81 24.76
2/22/2020 04:00 to 3:10 24.83 24.90 24.96 24.87 24.73 24.65
2/22/2020 03:00 to 2:10 24.46 24.56 24.37 25.03 24.62 24.69
2/22/2020 02:00 to 1:10 24.66 24.84 25.05 25.06 25.33 25.90
2/22/2020 01:00 to 0:10 26.05 25.95 25.91 25.84 25.88 26.01